Time,TemperatureF,DewpointF,PressureIn,WindDirection,WindDirectionDegrees,WindSpeedMPH,WindSpeedGustMPH,Humidity,HourlyPrecipIn,Conditions,Clouds,dailyrainin,SolarRadiationWatts/m^2,SoftwareType,DateUTC
2013-07-13 00:10:00,52.3,50.3,29.72,WSW,252,2.0,6.0,93,0.00,,,0.00,0,Wunderground v.1.15,2013-07-13 06:10:00,
2013-07-13 00:30:00,54.1,51.5,29.72,NE,40,2.0,2.0,91,0.00,,,0.00,0,Wunderground v.1.15,2013-07-13 06:30:00,
2013-07-13 00:50:00,53.5,50.6,29.73,SE,137,0.0,0.0,90,0.00,,,0.00,0,Wunderground v.1.15,2013-07-13 06:50:00,
2013-07-13 01:10:00,54.7,51.2,29.73,SW,221,3.0,3.0,88,0.00,,,0.00,0,Wunderground v.1.15,2013-07-13 07:10:00,
2013-07-13 01:20:00,55.1,51.0,29.73,West,275,1.0,6.0,86,0.00,,,0.00,0,Wunderground v.1.15,2013-07-13 07:20:00,
2013-07-13 01:30:00,55.4,50.6,29.73,SW,236,6.0,7.0,84,0.00,,,0.00,0,Wunderground v.1.15,2013-07-13 07:30:00,
2013-07-13 01:40:00,55.8,50.7,29.73,North,360,8.0,8.0,83,0.00,,,0.00,0,Wunderground v.1.15,2013-07-13 07:40:00,
2013-07-13 01:50:00,56.0,50.6,29.74,North,360,8.0,8.0,82,0.00,,,0.00,0,Wunderground v.1.15,2013-07-13 07:50:00,
2013-07-13 02:11:00,56.0,50.3,29.74,SE,141,2.0,2.0,81,0.00,,,0.00,0,Wunderground v.1.15,2013-07-13 08:11:00,
2013-07-13 02:30:00,55.6,49.9,29.73,SW,224,1.0,1.0,81,0.00,,,0.00,0,Wunderground v.1.15,2013-07-13 08:30:00,
2013-07-13 02:40:00,55.3,49.6,29.73,East,95,1.0,1.0,81,0.00,,,0.00,0,Wunderground v.1.15,2013-07-13 08:40:00,
2013-07-13 03:30:00,52.7,48.9,29.74,NNW,336,0.0,0.0,87,0.00,,,0.00,0,Wunderground v.1.15,2013-07-13 09:30:00,
2013-07-13 03:40:00,52.6,49.1,29.74,NNW,342,0.0,0.0,88,0.00,,,0.00,0,Wunderground v.1.15,2013-07-13 09:40:00,
2013-07-13 04:01:00,53.0,48.9,29.74,WNW,288,0.0,3.0,86,0.00,,,0.00,0,Wunderground v.1.15,2013-07-13 10:01:00,
2013-07-13 04:10:00,53.7,49.0,29.73,SE,143,4.0,4.0,84,0.00,,,0.00,0,Wunderground v.1.15,2013-07-13 10:10:00,
2013-07-13 04:30:00,54.4,49.3,29.74,North,360,3.0,7.0,83,0.00,,,0.00,0,Wunderground v.1.15,2013-07-13 10:30:00,
2013-07-13 04:50:00,56.1,49.7,29.75,NE,53,3.0,3.0,79,0.00,,,0.00,0,Wunderground v.1.15,2013-07-13 10:50:00,
2013-07-13 05:10:00,55.5,50.1,29.75,ENE,71,0.0,0.0,82,0.00,,,0.00,0,Wunderground v.1.15,2013-07-13 11:10:00,
2013-07-13 05:20:00,55.0,49.3,29.75,South,182,1.0,1.0,81,0.00,,,0.00,0,Wunderground v.1.15,2013-07-13 11:20:00,
2013-07-13 05:30:00,54.9,49.5,29.76,South,182,0.0,0.0,82,0.00,,,0.00,0,Wunderground v.1.15,2013-07-13 11:30:00,
2013-07-13 05:50:00,54.4,49.7,29.77,SW,226,0.0,0.0,84,0.00,,,0.00,0,Wunderground v.1.15,2013-07-13 11:50:00,
2013-07-13 06:00:00,55.5,49.8,29.76,North,360,3.0,5.0,81,0.00,,,0.00,5,Wunderground v.1.15,2013-07-13 12:00:00,
2013-07-13 06:10:00,56.7,49.6,29.76,West,280,7.0,8.0,77,0.00,,,0.00,5,Wunderground v.1.15,2013-07-13 12:10:00,
2013-07-13 06:30:00,57.2,50.1,29.77,NNW,336,1.0,3.0,77,0.00,,,0.00,12,Wunderground v.1.15,2013-07-13 12:30:00,
2013-07-13 07:00:00,57.7,50.5,29.76,NE,56,0.0,0.0,77,0.00,,,0.00,54,Wunderground v.1.15,2013-07-13 13:00:00,
2013-07-13 07:10:00,57.9,52.1,29.77,NE,56,0.0,0.0,81,0.00,,,0.00,95,Wunderground v.1.15,2013-07-13 13:10:00,
2013-07-13 07:30:00,57.8,52.7,29.77,ENE,69,0.0,0.0,83,0.00,,,0.00,81,Wunderground v.1.15,2013-07-13 13:30:00,
2013-07-13 07:50:00,57.5,53.7,29.77,ENE,68,0.0,0.0,87,0.00,,,0.00,62,Wunderground v.1.15,2013-07-13 13:50:00,
2013-07-13 08:00:00,57.6,53.8,29.77,NNE,30,0.0,0.0,87,0.00,,,0.00,70,Wunderground v.1.15,2013-07-13 14:00:00,
2013-07-13 08:20:00,58.6,54.4,29.78,NNE,30,0.0,0.0,86,0.00,,,0.00,125,Wunderground v.1.15,2013-07-13 14:20:00,
2013-07-13 08:30:00,59.0,54.2,29.77,NNE,30,0.0,0.0,84,0.00,,,0.00,141,Wunderground v.1.15,2013-07-13 14:30:00,
2013-07-13 08:50:00,61.1,55.6,29.78,SSW,196,1.0,3.0,82,0.00,,,0.00,186,Wunderground v.1.15,2013-07-13 14:50:00,
2013-07-13 09:20:00,65.8,55.7,29.78,East,91,0.0,0.0,70,0.00,,,0.00,366,Wunderground v.1.15,2013-07-13 15:20:00,
2013-07-13 09:40:00,65.9,53.8,29.78,East,86,1.0,1.0,65,0.00,,,0.00,213,Wunderground v.1.15,2013-07-13 15:40:00,
2013-07-13 09:50:00,65.3,52.8,29.78,East,94,2.0,2.0,64,0.00,,,0.00,336,Wunderground v.1.15,2013-07-13 15:50:00,
2013-07-13 10:10:00,65.7,54.4,29.78,ESE,108,4.0,4.0,67,0.00,,,0.00,422,Wunderground v.1.15,2013-07-13 16:10:00,
2013-07-13 10:30:00,66.6,54.5,29.77,ESE,112,2.0,2.0,65,0.00,,,0.00,387,Wunderground v.1.15,2013-07-13 16:30:00,
2013-07-13 10:50:00,66.5,52.6,29.79,South,189,3.0,3.0,61,0.00,,,0.00,339,Wunderground v.1.15,2013-07-13 16:50:00,
2013-07-13 11:01:00,66.8,54.2,29.79,East,97,2.0,2.0,64,0.00,,,0.00,355,Wunderground v.1.15,2013-07-13 17:01:00,
2013-07-13 11:20:00,68.2,53.3,29.79,SW,219,3.0,3.0,59,0.00,,,0.00,533,Wunderground v.1.15,2013-07-13 17:20:00,
2013-07-13 11:40:00,69.7,53.3,29.80,North,355,2.0,2.0,56,0.00,,,0.00,571,Wunderground v.1.15,2013-07-13 17:40:00,
2013-07-13 12:00:00,68.8,52.5,29.80,SSW,192,7.0,7.0,56,0.00,,,0.00,1081,Wunderground v.1.15,2013-07-13 18:00:00,
2013-07-13 12:20:00,70.8,52.3,29.80,NW,305,5.0,9.0,52,0.00,,,0.00,708,Wunderground v.1.15,2013-07-13 18:20:00,
2013-07-13 12:50:00,70.8,52.3,29.79,North,360,6.0,12.0,52,0.00,,,0.00,455,Wunderground v.1.15,2013-07-13 18:50:00,
2013-07-13 13:10:00,70.5,54.5,29.79,South,176,5.0,12.0,57,0.00,,,0.00,668,Wunderground v.1.15,2013-07-13 19:10:00,
2013-07-13 13:20:00,72.2,54.6,29.79,South,190,5.0,5.0,54,0.00,,,0.00,1310,Wunderground v.1.15,2013-07-13 19:20:00,
2013-07-13 13:50:00,71.6,55.1,29.79,North,360,6.0,6.0,56,0.00,,,0.00,524,Wunderground v.1.15,2013-07-13 19:50:00,
2013-07-13 14:00:00,72.6,54.5,29.78,NNW,330,6.0,6.0,53,0.00,,,0.00,1072,Wunderground v.1.15,2013-07-13 20:00:00,
2013-07-13 14:10:00,73.3,53.5,29.78,SSW,196,8.0,8.0,50,0.00,,,0.00,199,Wunderground v.1.15,2013-07-13 20:10:00,
2013-07-13 14:20:00,74.1,53.2,29.77,SE,144,3.0,11.0,48,0.00,,,0.00,1100,Wunderground v.1.15,2013-07-13 20:20:00,
2013-07-13 14:30:00,73.4,53.6,29.77,South,185,5.0,5.0,50,0.00,,,0.00,1121,Wunderground v.1.15,2013-07-13 20:30:00,
2013-07-13 15:00:00,74.9,54.4,29.77,SW,236,8.0,12.0,49,0.00,,,0.00,1055,Wunderground v.1.15,2013-07-13 21:00:00,
2013-07-13 15:10:00,75.2,53.0,29.78,WSW,243,8.0,21.0,46,0.00,,,0.00,1046,Wunderground v.1.15,2013-07-13 21:10:00,
2013-07-13 15:40:00,75.1,53.5,29.78,South,185,4.0,10.0,47,0.00,,,0.00,837,Wunderground v.1.15,2013-07-13 21:40:00,
2013-07-13 15:50:00,75.8,54.1,29.78,North,351,4.0,8.0,47,0.00,,,0.00,833,Wunderground v.1.15,2013-07-13 21:50:00,
2013-07-13 16:11:00,75.4,53.8,29.78,WNW,297,3.0,3.0,47,0.00,,,0.00,223,Wunderground v.1.15,2013-07-13 22:11:00,
2013-07-13 16:20:00,75.0,54.0,29.77,NW,304,6.0,8.0,48,0.00,,,0.00,752,Wunderground v.1.15,2013-07-13 22:20:00,
2013-07-13 16:30:00,75.9,53.6,29.76,SW,226,3.0,3.0,46,0.00,,,0.00,745,Wunderground v.1.15,2013-07-13 22:30:00,
2013-07-13 16:40:00,76.3,52.8,29.76,WNW,283,2.0,2.0,44,0.00,,,0.00,708,Wunderground v.1.15,2013-07-13 22:40:00,
2013-07-13 16:50:00,75.8,55.3,29.77,NW,323,5.0,12.0,49,0.00,,,0.00,807,Wunderground v.1.15,2013-07-13 22:50:00,
2013-07-13 17:20:00,74.3,51.6,29.77,WNW,303,7.0,12.0,45,0.00,,,0.00,601,Wunderground v.1.15,2013-07-13 23:20:00,
2013-07-13 17:30:00,73.4,51.9,29.77,West,277,11.0,11.0,47,0.00,,,0.00,580,Wunderground v.1.15,2013-07-13 23:30:00,
2013-07-13 17:40:00,72.7,50.7,29.78,NW,323,7.0,7.0,46,0.00,,,0.00,202,Wunderground v.1.15,2013-07-13 23:40:00,
2013-07-13 17:50:00,71.9,50.6,29.78,WSW,252,6.0,9.0,47,0.00,,,0.00,264,Wunderground v.1.15,2013-07-13 23:50:00,
2013-07-13 18:10:00,72.4,52.7,29.78,SW,229,4.0,6.0,50,0.00,,,0.00,272,Wunderground v.1.15,2013-07-14 00:10:00,
2013-07-13 18:30:00,70.8,52.3,29.77,East,88,1.0,10.0,52,0.00,,,0.00,151,Wunderground v.1.15,2013-07-14 00:30:00,
2013-07-13 18:41:00,70.2,51.7,29.77,SW,223,2.0,2.0,52,0.00,,,0.00,111,Wunderground v.1.15,2013-07-14 00:41:00,
2013-07-13 18:50:00,70.0,54.5,29.78,SW,223,0.0,0.0,58,0.00,,,0.00,118,Wunderground v.1.15,2013-07-14 00:50:00,
2013-07-13 19:10:00,69.4,49.4,29.79,South,188,1.0,3.0,49,0.00,,,0.00,113,Wunderground v.1.15,2013-07-14 01:10:00,
2013-07-13 19:30:00,68.9,54.4,29.80,SSW,200,0.0,0.0,60,0.00,,,0.00,81,Wunderground v.1.15,2013-07-14 01:30:00,
2013-07-13 19:40:00,67.6,53.7,29.81,East,84,2.0,11.0,61,0.00,,,0.00,46,Wunderground v.1.15,2013-07-14 01:40:00,
2013-07-13 19:50:00,63.8,53.0,29.82,ENE,69,13.0,13.0,68,0.00,,,0.00,14,Wunderground v.1.15,2013-07-14 01:50:00,
2013-07-13 20:01:00,63.1,53.5,29.84,WNW,300,4.0,4.0,71,0.00,,,0.00,12,Wunderground v.1.15,2013-07-14 02:01:00,
2013-07-13 20:10:00,62.8,53.6,29.85,NNE,21,3.0,5.0,72,0.00,,,0.00,0,Wunderground v.1.15,2013-07-14 02:10:00,
2013-07-13 20:30:00,61.7,53.3,29.83,NW,323,0.0,0.0,74,0.00,,,0.00,0,Wunderground v.1.15,2013-07-14 02:30:00,
2013-07-13 21:00:00,59.5,53.3,29.84,WNW,296,0.0,0.0,80,0.00,,,0.00,0,Wunderground v.1.15,2013-07-14 03:00:00,
2013-07-13 21:21:00,59.2,54.0,29.86,ESE,111,1.0,5.0,83,0.00,,,0.00,0,Wunderground v.1.15,2013-07-14 03:21:00,
2013-07-13 21:30:00,59.0,54.2,29.87,ESE,120,2.0,2.0,84,0.00,,,0.00,0,Wunderground v.1.15,2013-07-14 03:30:00,
2013-07-13 21:50:00,59.1,53.9,29.87,SSE,161,0.0,0.0,83,0.00,,,0.00,0,Wunderground v.1.15,2013-07-14 03:50:00,
2013-07-13 22:10:00,58.7,53.2,29.86,SSW,199,0.0,0.0,82,0.00,,,0.00,0,Wunderground v.1.15,2013-07-14 04:10:00,
2013-07-13 22:20:00,58.6,53.1,29.85,SSW,199,0.0,0.0,82,0.00,,,0.00,0,Wunderground v.1.15,2013-07-14 04:20:00,
2013-07-13 22:40:00,57.1,52.3,29.86,SSW,200,0.0,0.0,84,0.00,,,0.00,0,Wunderground v.1.15,2013-07-14 04:40:00,
2013-07-13 22:50:00,56.3,51.8,29.86,SSW,200,0.0,0.0,85,0.00,,,0.00,0,Wunderground v.1.15,2013-07-14 04:50:00,
2013-07-13 23:10:00,54.5,51.0,29.87,SSW,200,0.0,0.0,88,0.00,,,0.00,0,Wunderground v.1.15,2013-07-14 05:10:00,
2013-07-13 23:20:00,53.9,50.7,29.87,SSW,200,0.0,0.0,89,0.00,,,0.00,0,Wunderground v.1.15,2013-07-14 05:20:00,
2013-07-13 23:30:00,53.8,50.6,29.88,SSW,200,0.0,0.0,89,0.00,,,0.00,0,Wunderground v.1.15,2013-07-14 05:30:00,
2013-07-13 23:50:00,53.3,50.1,29.88,SSW,200,0.0,0.0,89,0.00,,,0.00,0,Wunderground v.1.15,2013-07-14 05:50:00,